EN

Hourly Weather Gogolewo

Today, 16 May, Sunday

Time Temperature Precipitation Wind Pressure Humidity
00:00 +10°C° 0.2 mm 3 mps 748 mmHg 92%
01:00 +10°C° 0 mm 3 mps 748 mmHg 93%
02:00 +10°C° 0.1 mm 3 mps 748 mmHg 94%
03:00 +9°C° 0.1 mm 3 mps 747 mmHg 95%
04:00 +9°C° 0.1 mm 3 mps 747 mmHg 96%
05:00 +9°C° 0.6 mm 3 mps 747 mmHg 96%
06:00 +10°C° 0.6 mm 2 mps 748 mmHg 96%
07:00 +10°C° 0.6 mm 2 mps 748 mmHg 95%
08:00 +11°C° 0.5 mm 3 mps 748 mmHg 89%
09:00 +13°C° 0.5 mm 3 mps 748 mmHg 82%
10:00 +14°C° 0.5 mm 3 mps 748 mmHg 76%
11:00 +14°C° 0.6 mm 3 mps 748 mmHg 76%
12:00 +14°C° 0.6 mm 4 mps 748 mmHg 76%
13:00 +14°C° 0.6 mm 4 mps 748 mmHg 76%
14:00 +14°C° 0.5 mm 4 mps 747 mmHg 75%
15:00 +14°C° 0.5 mm 4 mps 747 mmHg 74%
16:00 +15°C° 0.5 mm 4 mps 747 mmHg 73%
17:00 +14°C° 0.3 mm 3 mps 747 mmHg 77%
18:00 +14°C° 0.3 mm 2 mps 747 mmHg 81%
19:00 +13°C° 0.3 mm 2 mps 747 mmHg 85%
20:00 +12°C° 0 mm 2 mps 747 mmHg 87%
21:00 +10°C° 0 mm 2 mps 747 mmHg 88%
22:00 +9°C° 0 mm 2 mps 747 mmHg 90%
23:00 +8°C° 0.1 mm 2 mps 747 mmHg 91%

Tomorrow, 17 May, Monday

Time Temperature Precipitation Wind Pressure Humidity
00:00 +8°C° 0.1 mm 2 mps 747 mmHg 92%
01:00 +8°C° 0.1 mm 2 mps 747 mmHg 93%
02:00 +7°C° 0 mm 2 mps 747 mmHg 94%
03:00 +7°C° 0 mm 2 mps 747 mmHg 95%
04:00 +7°C° 0 mm 2 mps 747 mmHg 96%
05:00 +8°C° 0 mm 2 mps 747 mmHg 93%
06:00 +9°C° 0 mm 3 mps 748 mmHg 90%
07:00 +11°C° 0 mm 3 mps 748 mmHg 87%
08:00 +12°C° 0 mm 3 mps 748 mmHg 83%
09:00 +14°C° 0 mm 2 mps 748 mmHg 78%
10:00 +15°C° 0 mm 2 mps 748 mmHg 74%
11:00 +14°C° 0.4 mm 2 mps 748 mmHg 79%
12:00 +13°C° 0.4 mm 2 mps 748 mmHg 83%
13:00 +13°C° 0.4 mm 1 mps 749 mmHg 88%
14:00 +13°C° 0.1 mm 1 mps 749 mmHg 84%
15:00 +14°C° 0.1 mm 1 mps 749 mmHg 79%
16:00 +15°C° 0.1 mm 1 mps 749 mmHg 75%
17:00 +14°C° 0.1 mm 1 mps 749 mmHg 78%
18:00 +14°C° 0.1 mm 1 mps 749 mmHg 82%
19:00 +13°C° 0.1 mm 1 mps 749 mmHg 85%
20:00 +12°C° 0 mm 1 mps 749 mmHg 87%
21:00 +11°C° 0 mm 1 mps 749 mmHg 90%
22:00 +11°C° 0 mm 1 mps 749 mmHg 92%
23:00 +10°C° 0 mm 1 mps 749 mmHg 93%

Day after tomorrow, 18 May, Tuesday

Time Temperature Precipitation Wind Pressure Humidity
00:00 +9°C° 0 mm 2 mps 749 mmHg 94%
01:00 +9°C° 0 mm 2 mps 749 mmHg 95%
02:00 +8°C° 0 mm 2 mps 750 mmHg 96%
03:00 +7°C° 0 mm 2 mps 750 mmHg 96%
04:00 +7°C° 0 mm 2 mps 750 mmHg 97%
05:00 +8°C° 0 mm 3 mps 750 mmHg 93%
06:00 +9°C° 0 mm 3 mps 750 mmHg 89%
07:00 +11°C° 0 mm 3 mps 750 mmHg 85%
08:00 +12°C° 0.2 mm 3 mps 750 mmHg 82%
09:00 +13°C° 0.2 mm 4 mps 750 mmHg 79%
10:00 +14°C° 0.2 mm 4 mps 750 mmHg 75%
11:00 +14°C° 0.5 mm 4 mps 751 mmHg 76%
12:00 +14°C° 0.5 mm 5 mps 751 mmHg 77%
13:00 +14°C° 0.5 mm 5 mps 751 mmHg 78%
14:00 +14°C° 0.4 mm 4 mps 751 mmHg 75%
15:00 +14°C° 0.4 mm 4 mps 751 mmHg 72%
16:00 +14°C° 0.4 mm 4 mps 751 mmHg 70%
17:00 +14°C° 0.2 mm 3 mps 752 mmHg 74%
18:00 +14°C° 0.2 mm 2 mps 752 mmHg 78%
19:00 +13°C° 0.2 mm 2 mps 752 mmHg 82%
20:00 +12°C° 0 mm 2 mps 752 mmHg 85%
21:00 +10°C° 0 mm 2 mps 753 mmHg 88%
22:00 +9°C° 0 mm 1 mps 753 mmHg 91%
23:00 +8°C° 0 mm 2 mps 753 mmHg 92%

19 May, Wednesday

Time Temperature Precipitation Wind Pressure Humidity
00:00 +8°C° 0 mm 2 mps 753 mmHg 93%
01:00 +7°C° 0 mm 2 mps 753 mmHg 94%
02:00 +7°C° 0 mm 2 mps 754 mmHg 95%
03:00 +7°C° 0 mm 2 mps 754 mmHg 95%
04:00 +7°C° 0 mm 2 mps 754 mmHg 96%
05:00 +8°C° 0 mm 3 mps 754 mmHg 93%
06:00 +8°C° 0 mm 4 mps 754 mmHg 91%
07:00 +10°C° 0 mm 4 mps 755 mmHg 88%
08:00 +11°C° 0.2 mm 4 mps 755 mmHg 83%
09:00 +12°C° 0.2 mm 5 mps 755 mmHg 78%
10:00 +12°C° 0.2 mm 5 mps 756 mmHg 73%
11:00 +13°C° 0.1 mm 5 mps 756 mmHg 68%
12:00 +13°C° 0.1 mm 4 mps 755 mmHg 64%
13:00 +14°C° 0.1 mm 4 mps 755 mmHg 60%
14:00 +14°C° 0.1 mm 4 mps 755 mmHg 59%
15:00 +14°C° 0.1 mm 4 mps 755 mmHg 59%
16:00 +14°C° 0.1 mm 4 mps 755 mmHg 59%
17:00 +13°C° 0 mm 3 mps 756 mmHg 65%
18:00 +13°C° 0 mm 2 mps 756 mmHg 70%
19:00 +12°C° 0 mm 2 mps 756 mmHg 76%
20:00 +11°C° 0 mm 1 mps 756 mmHg 80%
21:00 +10°C° 0 mm 1 mps 756 mmHg 83%
22:00 +8°C° 0 mm 1 mps 756 mmHg 87%
23:00 +8°C° 0 mm 1 mps 756 mmHg 89%

20 May, Thursday

Time Temperature Precipitation Wind Pressure Humidity
00:00 +7°C° 0 mm 2 mps 756 mmHg 91%
01:00 +6°C° 0 mm 2 mps 756 mmHg 93%
02:00 +6°C° 0 mm 2 mps 756 mmHg 94%
03:00 +6°C° 0 mm 2 mps 756 mmHg 95%
04:00 +5°C° 0 mm 2 mps 756 mmHg 95%
05:00 +7°C° 0 mm 3 mps 757 mmHg 91%
06:00 +8°C° 0 mm 3 mps 757 mmHg 86%
07:00 +10°C° 0 mm 4 mps 757 mmHg 81%
08:00 +11°C° 0 mm 4 mps 757 mmHg 73%
09:00 +12°C° 0 mm 5 mps 757 mmHg 66%
10:00 +14°C° 0 mm 5 mps 757 mmHg 59%
11:00 +14°C° 0.3 mm 5 mps 757 mmHg 59%
12:00 +14°C° 0.3 mm 6 mps 757 mmHg 59%
13:00 +14°C° 0.3 mm 6 mps 757 mmHg 60%
14:00 +14°C° 0.4 mm 6 mps 757 mmHg 63%
15:00 +14°C° 0.4 mm 5 mps 757 mmHg 66%
16:00 +13°C° 0.4 mm 5 mps 757 mmHg 69%
17:00 +12°C° 0.4 mm 4 mps 757 mmHg 75%
18:00 +11°C° 0.4 mm 4 mps 756 mmHg 81%
19:00 +10°C° 0.4 mm 3 mps 756 mmHg 86%
20:00 +9°C° 0.1 mm 3 mps 756 mmHg 89%
21:00 +8°C° 0.1 mm 3 mps 756 mmHg 92%
22:00 +7°C° 0.1 mm 2 mps 757 mmHg 95%
23:00 +7°C° 0 mm 2 mps 757 mmHg 95%

21 May, Friday

Time Temperature Precipitation Wind Pressure Humidity
00:00 +6°C° 0 mm 2 mps 757 mmHg 95%
01:00 +4°C° 0 mm 3 mps 756 mmHg 95%
02:00 +5°C° 0 mm 2 mps 756 mmHg 95%
03:00 +4°C° 0 mm 2 mps 756 mmHg 95%
04:00 +4°C° 0 mm 2 mps 756 mmHg 94%
05:00 +5°C° 0 mm 3 mps 756 mmHg 92%
06:00 +7°C° 0 mm 3 mps 756 mmHg 91%
07:00 +8°C° 0 mm 4 mps 755 mmHg 89%
08:00 +10°C° 0.1 mm 4 mps 755 mmHg 84%
09:00 +11°C° 0.1 mm 4 mps 755 mmHg 78%
10:00 +13°C° 0.1 mm 4 mps 754 mmHg 73%
11:00 +13°C° 0.3 mm 4 mps 754 mmHg 73%
12:00 +13°C° 0.3 mm 4 mps 753 mmHg 73%
13:00 +13°C° 0.3 mm 5 mps 753 mmHg 73%
14:00 +14°C° 0.1 mm 4 mps 752 mmHg 72%
15:00 +14°C° 0.1 mm 4 mps 752 mmHg 70%
16:00 +16°C° 0.1 mm 3 mps 751 mmHg 69%
17:00 +14°C° 0 mm 3 mps 751 mmHg 72%
18:00 +14°C° 0 mm 3 mps 750 mmHg 75%
19:00 +14°C° 0 mm 2 mps 750 mmHg 77%
20:00 +13°C° 0.1 mm 3 mps 749 mmHg 78%
21:00 +13°C° 0.1 mm 3 mps 749 mmHg 78%
22:00 +13°C° 0.1 mm 3 mps 749 mmHg 78%
23:00 +12°C° 0.2 mm 4 mps 749 mmHg 82%
Show more